Location: Rumah Apan
(2.7833°N, 113.9500°E)
Time: 00:08:30
(UTC+00:00)

H-2A R/B - Pass Details

Date: 25 July 2021
Orbit: 733 x 836 km, 98.2° (Epoch: 22 September)

Event Time Altitude Azimuth Distance (km) Brightness Sun altitude
Rises 11:17:36 0° 173° (S) 3,382 5.1 -10.1°
Reaches altitude 10° 11:19:58 10° 175° (S) 2,446 4.4 -10.6°
Maximum altitude 11:25:23 70° 258° (WSW) 883 2.5 -11.9°
Drops below altitude 10° 11:30:43 10° 341° (NNW) 2,409 5.1 -13.1°
Sets 11:33:03 0° 344° (NNW) 3,328 5.9 -13.7°
